User: anonymous   Login
Location: Unspecified
(0.0000°N, 0.0000°E)
Time: 13:41:17
(UTC+00:00)
Language:

NAVSTAR 64 (USA 206) - Orbit

View from above orbital plane
View from above orbital plane
View from above satellite
View from above satellite

Ground track
Ground track

The orbit data is extracted from the following two-line orbital elements,

1 35752U 09043A   15116.43702657 -.00000033  00000-0  00000+0 0  9992
2 35752 054.2334 191.2485 0040343 018.7831 147.3555 02.00578652 41715
Epoch (UTC): 26 April 2015 10:29:19
Eccentricity: 0.0040343
inclination: 54.2334°
perigee height: 20073 km
apogee height: 20288 km
right ascension of ascending node: 191.2485°
argument of perigee: 18.7831°
revolutions per day: 2.00578652
mean anomaly at epoch: 147.3555°
orbit number at epoch: 4171

The dashed part of the orbit path shows where the satellite is in the earth's shadow,  

DLR